STARLINK-2717, 48659

Orbit data source: Space-Track

STARLINK-2717, 48659 is a payload satellite owned by SpaceX/Seattle (US) in LEO that was launched on Wed, 26 May 2021 UTC via an FALCON 9 launch vehicle from the Air Force Eastern Test Range (AFETR). Payload-class satellites include a variety of spacecraft equipped with specific instruments for various scientific and technological missions. These include communications satellites like Starlink; space stations such as the ISS; scientific satellites like the Hubble; Earth observation satellites from companies like Planet Labs, Umbra, and HawkEye 360; GPS; miniature CubeSats for education and research; and military/defense satellites.

Loading next visibility...
Identifier
48659, 2021-044X
Orbit
LEO
Country
Flag of USUS
Related business
Manufacturer
SpaceX/Seattle
Mission
Operational Commercial Communications
Bus & Motor
STARLINK, Unknown motor
Mass
260 kg wet, ~248 kg dry
Launch date (UTC)
2021-05-26 (5 years ago)
Launch vehicle
FALCON 9
Launch site
Air Force Eastern Test Range (AFETR)
Object type
Payload
Rocket body
Debris
Shape & HBR
Box + 1 Pan, 10.1 m
Radar Cross Section
13.562 m², Large (>1 m²)

Expand to show TLE details & history
Last TLE update: 1 day ago

TLE from 1 day ago
0 STARLINK-2717
1 48659U 21044X   25348.73345926  .00001178  00000-0  97979-4 0  9996
2 48659  53.0542 143.0029 0001359  87.7106 272.4038 15.06389693250901
Epoch: 2025-12-14T17:36Z
TLE epoch observation values (Epoch: 2025-12-14T17:36:10.880Z)
Latitude
-0.00005°
Longitude
155.31539°
Altitude
548.083 km
Speed
7.589 km/s
True Right ascension
09h 32m 00s
True Declination
0° 00' 00"
Sunlit
Object was in full shadow at epoch
Visualization orbit readout
Latitude
Unknown
Longitude
Unknown
Altitude
Unknown
Speed
Unknown
Apparent Right ascension
Unknown
Apparent Declination
Unknown
Sunlit
N/A
Visualization observer readout
Local Sidereal Time
17:04:32
Azimuth
Unknown
Elevation
Unknown
Doppler factor
Unknown
Orbital elements
Apogee altitude
548.455 km
Perigee altitude
546.573 km
Semi-major axis
6,925.651 km
Eccentricity
0.00014
Inclination
53.0542°
RAAN
143.0029°
Arg. of periapsis
87.7106°
True anomaly
272.38824°
Mean anomaly
272.4038°
Eccentric anomaly
272.39602°
Mean motion
3.76576 °/min
Orbital period
95.6 mins
BSTAR
0.000097979
Loading maneuver chart data...
Computing Atmospheric mass density...
Loading historical data...
Loading historical data...
Loading historical data...
Loading historical data...
Loading historical data...
Loading historical data...
Loading historical data...

Documentation

Showing up to 5 results
|